| time (UTC) | temp F | wind direction | speed knots | gust knots | rain 1hr in | rain 24hr in | rain mn in | humidity % | barometer mb |
| 20260902231641 | 89 | 216 | 3.5 | 5.2 | 0.00 | 0.00 | 0.00 | 67 | 1014.1 |
| 20260902231136 | 89 | 231 | 4.3 | 5.2 | 0.00 | 0.00 | 0.00 | 66 | 1014.0 |
| 20260902230631 | 89 | 234 | 4.3 | 5.2 | 0.00 | 0.00 | 0.00 | 66 | 1014.3 |
| 20260902230130 | 89 | 221 | 4.3 | 5.2 | 0.00 | 0.00 | 0.00 | 65 | 1014.0 |
| 20260902225625 | 89 | 240 | 4.3 | 9.6 | 0.00 | 0.00 | 0.00 | 65 | 1014.0 |
| 20260902225125 | 90 | 217 | 3.5 | 7.8 | 0.00 | 0.00 | 0.00 | 66 | 1013.9 |
| 20260902224623 | 90 | 194 | 3.5 | 5.2 | 0.00 | 0.00 | 0.00 | 65 | 1014.2 |
| 20260902224119 | 90 | 222 | 8.7 | 9.6 | 0.00 | 0.00 | 0.00 | 64 | 1014.1 |
| 20260902223616 | 90 | 225 | 7.0 | 7.8 | 0.00 | 0.00 | 0.00 | 63 | 1014.1 |
| 20260902223114 | 90 | 218 | 7.8 | 12.2 | 0.00 | 0.00 | 0.00 | 63 | 1014.0 |
| 20260902222613 | 90 | 238 | 3.5 | 6.1 | 0.00 | 0.00 | 0.00 | 65 | 1013.9 |
| 20260902222112 | 90 | 243 | 9.6 | 11.3 | 0.00 | 0.00 | 0.00 | 62 | 1014.0 |
| 20260902221608 | 90 | 213 | 7.8 | 11.3 | 0.00 | 0.00 | 0.00 | 63 | 1014.1 |
| 20260902221108 | 90 | 236 | 9.6 | 11.3 | 0.00 | 0.00 | 0.00 | 62 | 1014.1 |
| 20260902220603 | 91 | 213 | 5.2 | 8.7 | 0.00 | 0.00 | 0.00 | 63 | 1014.3 |
| 20260902220057 | 91 | 249 | 8.7 | 11.3 | 0.00 | 0.00 | 0.00 | 62 | 1014.2 |
| 20260902215554 | 91 | 242 | 6.1 | 11.3 | 0.00 | 0.00 | 0.00 | 63 | 1014.1 |
| 20260902215044 | 91 | 279 | 4.3 | 8.7 | 0.00 | 0.00 | 0.00 | 64 | 1014.1 |
| 20260902214543 | 91 | 246 | 9.6 | 12.2 | 0.00 | 0.00 | 0.00 | 62 | 1014.2 |
| 20260902214042 | 91 | 268 | 6.1 | 7.0 | 0.00 | 0.00 | 0.00 | 62 | 1014.2 |
| 20260902213538 | 0 | 0.0 | 0.0 | 0.00 | 0.00 | 0.00 | 1014.1 | ||
| 20260902213037 | 91 | 217 | 7.8 | 9.6 | 0.00 | 0.00 | 0.00 | 61 | 1014.1 |
| 20260902212533 | 91 | 217 | 7.8 | 9.6 | 0.00 | 0.00 | 0.00 | 61 | 1014.0 |
| 20260902212029 | 91 | 242 | 5.2 | 6.1 | 0.00 | 0.00 | 0.00 | 63 | 1014.0 |
| 20260902211525 | 91 | 242 | 6.1 | 8.7 | 0.00 | 0.00 | 0.00 | 62 | 1014.2 |
| 20260902211020 | 91 | 234 | 7.0 | 12.2 | 0.00 | 0.00 | 0.00 | 62 | 1014.2 |
| 20260902210520 | 91 | 241 | 7.8 | 9.6 | 0.00 | 0.00 | 0.00 | 63 | 1014.2 |
| 20260902210019 | 91 | 243 | 5.2 | 11.3 | 0.00 | 0.00 | 0.00 | 62 | 1014.0 |
| 20260902205514 | 91 | 221 | 7.8 | 8.7 | 0.00 | 0.00 | 0.00 | 60 | 1014.1 |
| 20260902205009 | 91 | 232 | 6.1 | 8.7 | 0.00 | 0.00 | 0.00 | 60 | 1014.3 |
| 20260902204509 | 91 | 258 | 10.4 | 13.9 | 0.00 | 0.00 | 0.00 | 58 | 1014.3 |
| 20260902204004 | 91 | 226 | 7.0 | 11.3 | 0.00 | 0.00 | 0.00 | 61 | 1014.1 |
| 20260902203500 | 91 | 250 | 4.3 | 11.3 | 0.00 | 0.00 | 0.00 | 61 | 1014.5 |
| 20260902202958 | 91 | 243 | 5.2 | 8.7 | 0.00 | 0.00 | 0.00 | 61 | 1014.6 |
| 20260902202454 | 91 | 242 | 7.0 | 9.6 | 0.00 | 0.00 | 0.00 | 61 | 1014.8 |
| 20260902201951 | 91 | 224 | 5.2 | 7.0 | 0.00 | 0.00 | 0.00 | 60 | 1014.5 |
| 20260902201446 | 91 | 204 | 8.7 | 12.2 | 0.00 | 0.00 | 0.00 | 59 | 1015.0 |
| 20260902200946 | 91 | 236 | 7.0 | 7.8 | 0.00 | 0.00 | 0.00 | 60 | 1014.8 |
| 20260902200441 | 91 | 238 | 7.0 | 9.6 | 0.00 | 0.00 | 0.00 | 59 | 1014.8 |
| 20260902195936 | 91 | 245 | 5.2 | 13.9 | 0.00 | 0.00 | 0.00 | 60 | 1014.9 |
| 20260902195432 | 91 | 177 | 5.2 | 7.0 | 0.00 | 0.00 | 0.00 | 62 | 1014.9 |
| 20260902194926 | 91 | 259 | 7.8 | 8.7 | 0.00 | 0.00 | 0.00 | 62 | 1015.2 |
| 20260902194425 | 91 | 266 | 8.7 | 11.3 | 0.00 | 0.00 | 0.00 | 59 | 1015.1 |
| 20260902193920 | 91 | 242 | 3.5 | 7.8 | 0.00 | 0.00 | 0.00 | 60 | 1015.1 |
| 20260902193417 | 91 | 257 | 4.3 | 7.8 | 0.00 | 0.00 | 0.00 | 56 | 1014.9 |
| 20260902192915 | 91 | 250 | 5.2 | 8.7 | 0.00 | 0.00 | 0.00 | 59 | 1015.3 |
| 20260902192414 | 91 | 252 | 5.2 | 9.6 | 0.00 | 0.00 | 0.00 | 59 | 1015.1 |
| 20260902191913 | 91 | 259 | 3.5 | 8.7 | 0.00 | 0.00 | 0.00 | 62 | 1015.2 |
| 20260902191409 | 91 | 247 | 11.3 | 13.0 | 0.00 | 0.00 | 0.00 | 57 | 1015.1 |
| 20260902190904 | 91 | 227 | 7.8 | 7.8 | 0.00 | 0.00 | 0.00 | 58 | 1015.4 |
| 20260902190404 | 91 | 237 | 8.7 | 13.0 | 0.00 | 0.00 | 0.00 | 57 | 1015.5 |
| 20260902185900 | 91 | 259 | 8.7 | 11.3 | 0.00 | 0.00 | 0.00 | 58 | 1015.5 |
| 20260902185356 | 91 | 268 | 5.2 | 8.7 | 0.00 | 0.00 | 0.00 | 58 | 1015.4 |
| 20260902184851 | 91 | 280 | 7.8 | 11.3 | 0.00 | 0.00 | 0.00 | 57 | 1015.6 |
| 20260902184346 | 91 | 240 | 4.3 | 11.3 | 0.00 | 0.00 | 0.00 | 60 | 1015.5 |
| 20260902183842 | 90 | 271 | 8.7 | 11.3 | 0.00 | 0.00 | 0.00 | 59 | 1015.6 |
| 20260902183338 | 91 | 291 | 7.0 | 12.2 | 0.00 | 0.00 | 0.00 | 58 | 1015.6 |
| 20260902182834 | 91 | 284 | 7.8 | 9.6 | 0.00 | 0.00 | 0.00 | 58 | 1015.8 |
| 20260902182330 | 91 | 258 | 5.2 | 9.6 | 0.00 | 0.00 | 0.00 | 59 | 1015.7 |
| 20260902181826 | 91 | 239 | 7.0 | 7.8 | 0.00 | 0.00 | 0.00 | 60 | 1015.8 |
| 20260902181321 | 90 | 224 | 6.1 | 8.7 | 0.00 | 0.00 | 0.00 | 57 | 1015.8 |
| 20260902180815 | 90 | 255 | 11.3 | 13.0 | 0.00 | 0.00 | 0.00 | 58 | 1015.7 |
| 20260902180311 | 90 | 246 | 6.1 | 13.0 | 0.00 | 0.00 | 0.00 | 60 | 1015.8 |
| 20260902175807 | 91 | 228 | 7.8 | 12.2 | 0.00 | 0.00 | 0.00 | 56 | 1015.7 |
| 20260902175307 | 90 | 261 | 7.8 | 9.6 | 0.00 | 0.00 | 0.00 | 60 | 1015.9 |
| 20260902174757 | 90 | 243 | 7.8 | 9.6 | 0.00 | 0.00 | 0.00 | 59 | 1016.3 |
| 20260902174253 | 90 | 277 | 8.7 | 9.6 | 0.00 | 0.00 | 0.00 | 59 | 1016.2 |
| 20260902173749 | 91 | 262 | 4.3 | 7.8 | 0.00 | 0.00 | 0.00 | 61 | 1016.1 |
| 20260902173243 | 90 | 259 | 3.5 | 7.0 | 0.00 | 0.00 | 0.00 | 63 | 1016.4 |
| 20260902172738 | 90 | 259 | 4.3 | 8.7 | 0.00 | 0.00 | 0.00 | 62 | 1016.5 |
| 20260902172237 | 90 | 261 | 5.2 | 7.8 | 0.00 | 0.00 | 0.00 | 64 | 1016.4 |
| 20260902171732 | 90 | 299 | 5.2 | 8.7 | 0.00 | 0.00 | 0.00 | 61 | 1016.3 |
| 20260902171227 | 90 | 252 | 6.1 | 7.0 | 0.00 | 0.00 | 0.00 | 62 | 1016.2 |
| 20260902170724 | 90 | 277 | 5.2 | 7.0 | 0.00 | 0.00 | 0.00 | 66 | 1016.5 |
| 20260902170219 | 90 | 287 | 3.5 | 7.8 | 0.00 | 0.00 | 0.00 | 62 | 1016.4 |
| 20260902165714 | 90 | 261 | 5.2 | 7.8 | 0.00 | 0.00 | 0.00 | 64 | 1016.1 |
| 20260902165209 | 89 | 250 | 4.3 | 7.8 | 0.00 | 0.00 | 0.00 | 65 | 1016.5 |
| 20260902164709 | 90 | 255 | 4.3 | 8.7 | 0.00 | 0.00 | 0.00 | 65 | 1016.4 |
| 20260902164209 | 89 | 290 | 6.1 | 7.8 | 0.00 | 0.00 | 0.00 | 63 | 1016.5 |
| 20260902163703 | 89 | 282 | 5.2 | 6.1 | 0.00 | 0.00 | 0.00 | 65 | 1016.6 |
| 20260902163203 | 89 | 285 | 6.1 | 8.7 | 0.00 | 0.00 | 0.00 | 63 | 1016.9 |
| 20260902162702 | 89 | 270 | 7.0 | 7.8 | 0.00 | 0.00 | 0.00 | 62 | 1016.9 |
| 20260902162156 | 89 | 267 | 4.3 | 7.8 | 0.00 | 0.00 | 0.00 | 66 | 1016.8 |
| 20260902161652 | 89 | 266 | 4.3 | 6.1 | 0.00 | 0.00 | 0.00 | 68 | 1016.6 |
| 20260902161147 | 88 | 284 | 6.1 | 7.8 | 0.00 | 0.00 | 0.00 | 64 | 1016.8 |
| 20260902160644 | 88 | 267 | 7.0 | 7.0 | 0.00 | 0.00 | 0.00 | 65 | 1016.6 |
| 20260902160138 | 88 | 281 | 6.1 | 8.7 | 0.00 | 0.00 | 0.00 | 64 | 1016.8 |
| 20260902155637 | 88 | 262 | 7.0 | 8.7 | 0.00 | 0.00 | 0.00 | 67 | 1016.8 |
| 20260902155135 | 88 | 260 | 5.2 | 7.0 | 0.00 | 0.00 | 0.00 | 67 | 1016.8 |
| 20260902154631 | 88 | 268 | 6.1 | 7.8 | 0.00 | 0.00 | 0.00 | 66 | 1016.6 |
| 20260902154126 | 88 | 275 | 3.5 | 7.0 | 0.00 | 0.00 | 0.00 | 69 | 1016.5 |
| 20260902153625 | 87 | 287 | 4.3 | 6.1 | 0.00 | 0.00 | 0.00 | 67 | 1016.6 |
| 20260902153120 | 87 | 267 | 5.2 | 6.1 | 0.00 | 0.00 | 0.00 | 70 | 1016.4 |
| 20260902152616 | 87 | 276 | 3.5 | 7.0 | 0.00 | 0.00 | 0.00 | 69 | 1016.4 |
| 20260902152112 | 87 | 222 | 5.2 | 6.1 | 0.00 | 0.00 | 0.00 | 69 | 1016.5 |
| 20260902151607 | 87 | 269 | 2.6 | 5.2 | 0.00 | 0.00 | 0.00 | 72 | 1016.5 |
| 20260902151107 | 86 | 270 | 3.5 | 6.1 | 0.00 | 0.00 | 0.00 | 70 | 1016.7 |
| 20260902150603 | 86 | 291 | 5.2 | 11.3 | 0.00 | 0.00 | 0.00 | 68 | 1016.8 |
| 20260902150058 | 86 | 251 | 6.1 | 7.8 | 0.00 | 0.00 | 0.00 | 69 | 1016.5 |
| 20260902145557 | 86 | 282 | 4.3 | 6.1 | 0.00 | 0.00 | 0.00 | 70 | 1016.4 |
| 20260902145057 | 86 | 286 | 1.7 | 7.0 | 0.00 | 0.00 | 0.00 | 73 | 1016.4 |
| 20260902144555 | 85 | 275 | 6.1 | 7.8 | 0.00 | 0.00 | 0.00 | 70 | 1016.6 |
| 20260902144054 | 85 | 288 | 4.3 | 6.1 | 0.00 | 0.00 | 0.00 | 70 | 1016.7 |
| 20260902143550 | 85 | 285 | 8.7 | 11.3 | 0.00 | 0.00 | 0.00 | 69 | 1016.9 |
| 20260902143045 | 85 | 285 | 5.2 | 7.0 | 0.00 | 0.00 | 0.00 | 73 | 1016.7 |
| 20260902142543 | 84 | 273 | 5.2 | 7.0 | 0.00 | 0.00 | 0.00 | 71 | 1016.7 |
| 20260902142036 | 84 | 279 | 5.2 | 8.7 | 0.00 | 0.00 | 0.00 | 72 | 1016.4 |
| 20260902141536 | 84 | 266 | 3.5 | 6.1 | 0.00 | 0.00 | 0.00 | 75 | 1016.7 |
| 20260902141032 | 84 | 275 | 5.2 | 6.1 | 0.00 | 0.00 | 0.00 | 74 | 1016.6 |
| 20260902140532 | 83 | 321 | 3.5 | 5.2 | 0.00 | 0.00 | 0.00 | 74 | 1016.4 |
| 20260902140027 | 83 | 274 | 3.5 | 6.1 | 0.00 | 0.00 | 0.00 | 75 | 1016.7 |
| 20260902135526 | 83 | 275 | 5.2 | 6.1 | 0.00 | 0.00 | 0.00 | 74 | 1016.5 |
| 20260902135021 | 82 | 280 | 3.5 | 5.2 | 0.00 | 0.00 | 0.00 | 77 | 1016.5 |
| 20260902134518 | 81 | 262 | 3.5 | 7.0 | 0.00 | 0.00 | 0.00 | 77 | 1016.6 |
| 20260902134017 | 81 | 277 | 3.5 | 7.8 | 0.00 | 0.00 | 0.00 | 76 | 1016.7 |
| 20260902133512 | 81 | 256 | 3.5 | 6.1 | 0.00 | 0.00 | 0.00 | 77 | 1016.6 |
| 20260902133012 | 81 | 277 | 5.2 | 7.8 | 0.00 | 0.00 | 0.00 | 78 | 1016.7 |
| 20260902132507 | 80 | 273 | 3.5 | 5.2 | 0.00 | 0.00 | 0.00 | 79 | 1016.4 |
| 20260902132002 | 80 | 251 | 1.7 | 5.2 | 0.00 | 0.00 | 0.00 | 81 | 1016.7 |
| 20260902131459 | 80 | 262 | 3.5 | 5.2 | 0.00 | 0.00 | 0.00 | 81 | 1016.7 |
| 20260902130958 | 79 | 251 | 3.5 | 5.2 | 0.00 | 0.00 | 0.00 | 82 | 1016.5 |
| 20260902130454 | 79 | 259 | 3.5 | 6.1 | 0.00 | 0.00 | 0.00 | 82 | 1016.6 |
| 20260902125949 | 78 | 248 | 4.3 | 6.1 | 0.00 | 0.00 | 0.00 | 82 | 1016.5 |
| 20260902125445 | 78 | 253 | 5.2 | 7.0 | 0.00 | 0.00 | 0.00 | 83 | 1016.5 |
| 20260902124941 | 78 | 242 | 3.5 | 6.1 | 0.00 | 0.00 | 0.00 | 83 | 1016.6 |
| 20260902124437 | 77 | 261 | 5.2 | 6.1 | 0.00 | 0.00 | 0.00 | 83 | 1016.5 |
| 20260902123932 | 77 | 255 | 2.6 | 5.2 | 0.00 | 0.00 | 0.00 | 84 | 1016.5 |
| 20260902123428 | 77 | 279 | 2.6 | 3.5 | 0.00 | 0.00 | 0.00 | 84 | 1016.5 |
| 20260902122926 | 76 | 267 | 2.6 | 3.5 | 0.00 | 0.00 | 0.00 | 85 | 1016.7 |
| 20260902122422 | 76 | 272 | 2.6 | 5.2 | 0.00 | 0.00 | 0.00 | 85 | 1016.6 |
| 20260902121918 | 76 | 257 | 2.6 | 5.2 | 0.00 | 0.00 | 0.00 | 85 | 1016.5 |
| 20260902121412 | 76 | 262 | 2.6 | 3.5 | 0.00 | 0.00 | 0.00 | 86 | 1016.7 |
| 20260902120907 | 75 | 239 | 1.7 | 3.5 | 0.00 | 0.00 | 0.00 | 86 | 1016.4 |
| 20260902120404 | 75 | 255 | 1.7 | 2.6 | 0.00 | 0.00 | 0.00 | 87 | 1016.4 |
| 20260902115903 | 75 | 255 | 1.7 | 3.5 | 0.00 | 0.00 | 0.00 | 86 | 1016.4 |
| 20260902115359 | 75 | 251 | 1.7 | 3.5 | 0.00 | 0.00 | 0.00 | 86 | 1016.5 |
| 20260902114856 | 74 | 247 | 1.7 | 3.5 | 0.00 | 0.00 | 0.00 | 86 | 1016.3 |
| 20260902114351 | 74 | 257 | 2.6 | 2.6 | 0.00 | 0.00 | 0.00 | 87 | 1016.3 |
| 20260902113851 | 74 | 240 | 1.7 | 2.6 | 0.00 | 0.00 | 0.00 | 86 | 1016.5 |
| 20260902113347 | 74 | 250 | 2.6 | 3.5 | 0.00 | 0.00 | 0.00 | 86 | 1016.2 |
| 20260902112846 | 74 | 231 | 2.6 | 3.5 | 0.00 | 0.00 | 0.00 | 87 | 1016.2 |
| 20260902112343 | 74 | 240 | 2.6 | 5.2 | 0.00 | 0.00 | 0.00 | 86 | 1016.1 |
| 20260902111838 | 74 | 217 | 2.6 | 3.5 | 0.00 | 0.00 | 0.00 | 87 | 1016.1 |
| 20260902111335 | 74 | 236 | 2.6 | 3.5 | 0.00 | 0.00 | 0.00 | 87 | 1016.1 |
| 20260902110830 | 74 | 222 | 1.7 | 3.5 | 0.00 | 0.00 | 0.00 | 86 | 1016.1 |
| 20260902110326 | 74 | 231 | 2.6 | 3.5 | 0.00 | 0.00 | 0.00 | 86 | 1015.9 |
| 20260902105825 | 74 | 227 | 2.6 | 5.2 | 0.00 | 0.00 | 0.00 | 87 | 1016.0 |
| 20260902105320 | 74 | 211 | 2.6 | 2.6 | 0.00 | 0.00 | 0.00 | 87 | 1015.7 |
| 20260902104815 | 74 | 204 | 2.6 | 2.6 | 0.00 | 0.00 | 0.00 | 88 | 1015.9 |
| 20260902104312 | 74 | 193 | 1.7 | 2.6 | 0.00 | 0.00 | 0.00 | 88 | 1015.9 |
| 20260902103811 | 74 | 196 | 1.7 | 1.7 | 0.00 | 0.00 | 0.00 | 87 | 1016.0 |
| 20260902103306 | 74 | 198 | 0.9 | 3.5 | 0.00 | 0.00 | 0.00 | 87 | 1015.9 |
| 20260902102801 | 74 | 203 | 1.7 | 1.7 | 0.00 | 0.00 | 0.00 | 87 | 1015.6 |
| 20260902102259 | 75 | 204 | 0.9 | 1.7 | 0.00 | 0.00 | 0.00 | 86 | 1015.7 |
| 20260902101754 | 75 | 185 | 1.7 | 2.6 | 0.00 | 0.00 | 0.00 | 86 | 1015.7 |
| 20260902101249 | 75 | 219 | 1.7 | 2.6 | 0.00 | 0.00 | 0.00 | 86 | 1015.7 |
| 20260902100749 | 75 | 241 | 3.5 | 3.5 | 0.00 | 0.00 | 0.00 | 85 | 1015.8 |
| 20260902100249 | 76 | 201 | 3.5 | 5.2 | 0.00 | 0.00 | 0.00 | 85 | 1015.5 |
| 20260902095744 | 76 | 204 | 2.6 | 6.1 | 0.00 | 0.00 | 0.00 | 85 | 1015.7 |
| 20260902095243 | 76 | 225 | 2.6 | 5.2 | 0.00 | 0.00 | 0.00 | 85 | 1015.5 |
| 20260902094738 | 76 | 224 | 3.5 | 3.5 | 0.00 | 0.00 | 0.00 | 85 | 1015.6 |
| 20260902094235 | 76 | 217 | 1.7 | 3.5 | 0.00 | 0.00 | 0.00 | 85 | 1015.6 |
| 20260902093733 | 76 | 252 | 2.6 | 3.5 | 0.00 | 0.00 | 0.00 | 86 | 1015.6 |
| 20260902093229 | 76 | 225 | 2.6 | 2.6 | 0.00 | 0.00 | 0.00 | 86 | 1015.7 |
| 20260902092728 | 76 | 220 | 1.7 | 2.6 | 0.00 | 0.00 | 0.00 | 86 | 1015.8 |
| 20260902092224 | 76 | 221 | 0.9 | 2.6 | 0.00 | 0.00 | 0.00 | 86 | 1015.6 |
| 20260902091723 | 76 | 252 | 1.7 | 2.6 | 0.00 | 0.00 | 0.00 | 86 | 1015.6 |
| 20260902091220 | 76 | 220 | 1.7 | 1.7 | 0.00 | 0.00 | 0.00 | 86 | 1015.6 |
| 20260902090716 | 76 | 221 | 0.9 | 1.7 | 0.00 | 0.00 | 0.00 | 86 | 1015.5 |
| 20260902090214 | 76 | 212 | 1.7 | 2.6 | 0.00 | 0.00 | 0.00 | 85 | 1015.5 |
| 20260902085709 | 76 | 219 | 1.7 | 2.6 | 0.00 | 0.00 | 0.00 | 85 | 1015.8 |
| 20260902085204 | 76 | 242 | 1.7 | 2.6 | 0.00 | 0.00 | 0.00 | 85 | 1015.6 |
| 20260902084701 | 76 | 238 | 1.7 | 2.6 | 0.00 | 0.00 | 0.00 | 85 | 1015.7 |
| 20260902084157 | 76 | 230 | 1.7 | 1.7 | 0.00 | 0.00 | 0.00 | 85 | 1015.6 |
| 20260902083651 | 76 | 227 | 1.7 | 2.6 | 0.00 | 0.00 | 0.00 | 85 | 1015.5 |
| 20260902083151 | 77 | 224 | 1.7 | 3.5 | 0.00 | 0.00 | 0.00 | 85 | 1015.5 |
| 20260902082646 | 76 | 218 | 3.5 | 5.2 | 0.00 | 0.00 | 0.00 | 86 | 1015.6 |
| 20260902082143 | 77 | 216 | 1.7 | 3.5 | 0.00 | 0.00 | 0.00 | 86 | 1015.3 |
| 20260902081639 | 77 | 237 | 2.6 | 2.6 | 0.00 | 0.00 | 0.00 | 86 | 1015.6 |
| 20260902081139 | 77 | 238 | 2.6 | 5.2 | 0.00 | 0.00 | 0.00 | 86 | 1015.5 |
| 20260902080635 | 77 | 241 | 3.5 | 3.5 | 0.00 | 0.00 | 0.00 | 86 | 1015.6 |
| 20260902080132 | 77 | 245 | 1.7 | 3.5 | 0.00 | 0.00 | 0.00 | 86 | 1015.5 |
| 20260902075631 | 76 | 255 | 2.6 | 2.6 | 0.00 | 0.00 | 0.00 | 87 | 1015.5 |
| 20260902075127 | 77 | 241 | 1.7 | 3.5 | 0.00 | 0.00 | 0.00 | 87 | 1015.3 |
| 20260902074622 | 76 | 215 | 3.5 | 3.5 | 0.00 | 0.00 | 0.00 | 87 | 1015.2 |
| 20260902074117 | 76 | 238 | 1.7 | 3.5 | 0.00 | 0.00 | 0.00 | 87 | 1015.3 |
| 20260902073612 | 76 | 242 | 2.6 | 5.2 | 0.00 | 0.00 | 0.00 | 87 | 1015.4 |
| 20260902073109 | 76 | 253 | 1.7 | 2.6 | 0.00 | 0.00 | 0.00 | 87 | 1015.4 |
| 20260902072604 | 76 | 249 | 1.7 | 3.5 | 0.00 | 0.00 | 0.00 | 88 | 1015.5 |
| 20260902072101 | 76 | 234 | 0.9 | 3.5 | 0.00 | 0.00 | 0.00 | 88 | 1015.3 |
| 20260902071601 | 76 | 223 | 0.9 | 2.6 | 0.00 | 0.00 | 0.00 | 88 | 1015.3 |
| 20260902071057 | 76 | 202 | 2.6 | 2.6 | 0.00 | 0.00 | 0.00 | 89 | 1015.5 |
| 20260902070552 | 76 | 223 | 1.7 | 2.6 | 0.00 | 0.00 | 0.00 | 89 | 1015.4 |
| 20260902070047 | 76 | 214 | 1.7 | 1.7 | 0.00 | 0.00 | 0.00 | 90 | 1015.5 |
| 20260902065540 | 76 | 236 | 1.7 | 1.7 | 0.00 | 0.00 | 0.00 | 89 | 1015.2 |
| 20260902065036 | 76 | 170 | 1.7 | 2.6 | 0.00 | 0.00 | 0.00 | 89 | 1015.4 |
| 20260902064532 | 76 | 190 | 1.7 | 2.6 | 0.00 | 0.00 | 0.00 | 89 | 1015.7 |
| 20260902064027 | 77 | 206 | 2.6 | 3.5 | 0.00 | 0.00 | 0.00 | 88 | 1015.5 |
| 20260902063526 | 77 | 228 | 3.5 | 3.5 | 0.00 | 0.00 | 0.00 | 88 | 1015.5 |
| 20260902063022 | 77 | 217 | 1.7 | 2.6 | 0.00 | 0.00 | 0.00 | 88 | 1015.5 |
| 20260902062520 | 77 | 214 | 3.5 | 3.5 | 0.00 | 0.00 | 0.00 | 88 | 1015.8 |
| 20260902062016 | 77 | 220 | 1.7 | 2.6 | 0.00 | 0.00 | 0.00 | 88 | 1015.7 |
| 20260902061511 | 77 | 214 | 2.6 | 3.5 | 0.00 | 0.00 | 0.00 | 88 | 1015.7 |
| 20260902061007 | 77 | 229 | 2.6 | 5.2 | 0.00 | 0.00 | 0.00 | 87 | 1015.6 |
| 20260902060503 | 78 | 202 | 3.5 | 5.2 | 0.00 | 0.00 | 0.00 | 87 | 1015.7 |
| 20260902055959 | 78 | 218 | 4.3 | 6.1 | 0.00 | 0.00 | 0.00 | 87 | 1015.6 |
| 20260902055455 | 78 | 232 | 3.5 | 5.2 | 0.00 | 0.00 | 0.00 | 87 | 1015.8 |
| 20260902054950 | 78 | 225 | 1.7 | 5.2 | 0.00 | 0.00 | 0.00 | 87 | 1015.6 |
| 20260902054449 | 78 | 227 | 2.6 | 5.2 | 0.00 | 0.00 | 0.00 | 87 | 1015.7 |
| 20260902053945 | 78 | 227 | 2.6 | 5.2 | 0.00 | 0.00 | 0.00 | 87 | 1015.5 |
| 20260902053440 | 78 | 228 | 3.5 | 5.2 | 0.00 | 0.00 | 0.00 | 86 | 1015.5 |
| 20260902052939 | 78 | 247 | 3.5 | 5.2 | 0.00 | 0.00 | 0.00 | 86 | 1015.6 |
| 20260902052434 | 78 | 236 | 1.7 | 3.5 | 0.00 | 0.00 | 0.00 | 86 | 1015.6 |
| 20260902051931 | 79 | 235 | 1.7 | 2.6 | 0.00 | 0.00 | 0.00 | 85 | 1015.5 |
| 20260902051430 | 79 | 230 | 1.7 | 2.6 | 0.00 | 0.00 | 0.00 | 85 | 1015.6 |
| 20260902050929 | 79 | 237 | 2.6 | 2.6 | 0.00 | 0.00 | 0.00 | 85 | 1015.4 |
| 20260902050429 | 79 | 238 | 4.3 | 6.1 | 0.00 | 0.00 | 0.00 | 84 | 1015.6 |
| 20260902045924 | 79 | 225 | 2.6 | 6.1 | 0.00 | 0.00 | 0.00 | 84 | 1015.4 |
| 20260902045419 | 80 | 237 | 2.6 | 6.1 | 0.00 | 0.00 | 0.00 | 84 | 1015.4 |
| 20260902044916 | 80 | 237 | 4.3 | 6.1 | 0.00 | 0.00 | 0.00 | 83 | 1015.3 |
| 20260902044411 | 80 | 240 | 4.3 | 7.8 | 0.00 | 0.00 | 0.00 | 83 | 1015.5 |
| 20260902043906 | 80 | 244 | 2.6 | 7.0 | 0.00 | 0.00 | 0.00 | 83 | 1015.5 |
| 20260902043401 | 80 | 249 | 6.1 | 7.8 | 0.00 | 0.00 | 0.00 | 83 | 1015.4 |
| 20260902042856 | 80 | 243 | 5.2 | 7.8 | 0.00 | 0.00 | 0.00 | 83 | 1015.6 |
| 20260902042356 | 80 | 260 | 6.1 | 7.8 | 0.00 | 0.00 | 0.00 | 82 | 1015.3 |
| 20260902041851 | 80 | 252 | 6.1 | 8.7 | 0.00 | 0.00 | 0.00 | 82 | 1015.2 |
| 20260902041351 | 80 | 249 | 5.2 | 7.8 | 0.00 | 0.00 | 0.00 | 82 | 1015.1 |
| 20260902040850 | 80 | 228 | 5.2 | 6.1 | 0.00 | 0.00 | 0.00 | 83 | 1015.2 |
| 20260902040345 | 80 | 210 | 3.5 | 7.8 | 0.00 | 0.00 | 0.00 | 83 | 1015.3 |
| 20260902035844 | 80 | 203 | 5.2 | 7.0 | 0.00 | 0.00 | 0.00 | 84 | 1015.3 |
| 20260902035340 | 80 | 241 | 3.5 | 5.2 | 0.00 | 0.00 | 0.00 | 84 | 1015.5 |
| 20260902034838 | 80 | 240 | 2.6 | 5.2 | 0.00 | 0.00 | 0.00 | 84 | 1015.5 |
| 20260902034334 | 80 | 246 | 2.6 | 5.2 | 0.00 | 0.00 | 0.00 | 84 | 1015.6 |
| 20260902033832 | 80 | 221 | 3.5 | 3.5 | 0.00 | 0.00 | 0.00 | 83 | 1015.5 |
| 20260902033327 | 80 | 245 | 3.5 | 3.5 | 0.00 | 0.00 | 0.00 | 83 | 1015.4 |
| 20260902032826 | 80 | 219 | 3.5 | 5.2 | 0.00 | 0.00 | 0.00 | 83 | 1015.5 |
| 20260902032321 | 80 | 237 | 1.7 | 2.6 | 0.00 | 0.00 | 0.00 | 83 | 1015.5 |
| 20260902031821 | 80 | 226 | 3.5 | 5.2 | 0.00 | 0.00 | 0.00 | 83 | 1015.5 |
| 20260902031317 | 80 | 225 | 2.6 | 5.2 | 0.00 | 0.00 | 0.00 | 83 | 1015.6 |
| 20260902030813 | 80 | 225 | 1.7 | 6.1 | 0.00 | 0.00 | 0.00 | 83 | 1015.6 |
| 20260902030307 | 80 | 217 | 2.6 | 3.5 | 0.00 | 0.00 | 0.00 | 83 | 1015.6 |
| 20260902025806 | 80 | 226 | 2.6 | 3.5 | 0.00 | 0.00 | 0.00 | 83 | 1015.6 |
| 20260902025306 | 80 | 173 | 1.7 | 3.5 | 0.00 | 0.00 | 0.00 | 83 | 1015.7 |
| 20260902024756 | 81 | 207 | 1.7 | 2.6 | 0.00 | 0.00 | 0.00 | 83 | 1015.7 |
| 20260902024251 | 81 | 220 | 2.6 | 3.5 | 0.00 | 0.00 | 0.00 | 82 | 1015.7 |
| 20260902023747 | 81 | 223 | 5.2 | 7.0 | 0.00 | 0.00 | 0.00 | 82 | 1015.7 |
| 20260902023243 | 81 | 196 | 2.6 | 2.6 | 0.00 | 0.00 | 0.00 | 82 | 1015.6 |
| 20260902022742 | 81 | 201 | 2.6 | 3.5 | 0.00 | 0.00 | 0.00 | 82 | 1015.6 |
| 20260902022238 | 81 | 201 | 2.6 | 3.5 | 0.00 | 0.00 | 0.00 | 82 | 1015.4 |
| 20260902021733 | 81 | 190 | 2.6 | 5.2 | 0.00 | 0.00 | 0.00 | 82 | 1015.8 |
| 20260902021233 | 81 | 208 | 3.5 | 3.5 | 0.00 | 0.00 | 0.00 | 82 | 1015.7 |
| 20260902020729 | 81 | 194 | 2.6 | 2.6 | 0.00 | 0.00 | 0.00 | 82 | 1015.2 |
| 20260902020225 | 81 | 189 | 2.6 | 3.5 | 0.00 | 0.00 | 0.00 | 81 | 1015.4 |
| 20260902015720 | 81 | 215 | 3.5 | 3.5 | 0.00 | 0.00 | 0.00 | 82 | 1015.5 |
| 20260902015217 | 81 | 216 | 2.6 | 3.5 | 0.00 | 0.00 | 0.00 | 82 | 1015.3 |
| 20260902014712 | 81 | 204 | 3.5 | 3.5 | 0.00 | 0.00 | 0.00 | 81 | 1015.3 |
| 20260902014208 | 81 | 192 | 2.6 | 2.6 | 0.00 | 0.00 | 0.00 | 82 | 1015.2 |
| 20260902013706 | 81 | 194 | 1.7 | 2.6 | 0.00 | 0.00 | 0.00 | 82 | 1015.5 |
| 20260902013202 | 81 | 186 | 2.6 | 2.6 | 0.00 | 0.00 | 0.00 | 82 | 1015.3 |
| 20260902012657 | 82 | 180 | 1.7 | 2.6 | 0.00 | 0.00 | 0.00 | 81 | 1015.3 |
| 20260902012153 | 82 | 182 | 1.7 | 2.6 | 0.00 | 0.00 | 0.00 | 80 | 1015.1 |
| 20260902011649 | 82 | 193 | 2.6 | 2.6 | 0.00 | 0.00 | 0.00 | 79 | 1015.1 |
| 20260902011148 | 82 | 189 | 2.6 | 2.6 | 0.00 | 0.00 | 0.00 | 79 | 1014.9 |
| 20260902010648 | 82 | 193 | 2.6 | 2.6 | 0.00 | 0.00 | 0.00 | 79 | 1015.0 |
| 20260902010144 | 82 | 193 | 2.6 | 2.6 | 0.00 | 0.00 | 0.00 | 79 | 1014.8 |
| 20260902005641 | 83 | 201 | 2.6 | 3.5 | 0.00 | 0.00 | 0.00 | 79 | 1014.9 |
| 20260902005138 | 83 | 192 | 3.5 | 3.5 | 0.00 | 0.00 | 0.00 | 78 | 1015.0 |
| 20260902004637 | 83 | 188 | 2.6 | 2.6 | 0.00 | 0.00 | 0.00 | 78 | 1014.8 |
| 20260902004132 | 83 | 179 | 1.7 | 2.6 | 0.00 | 0.00 | 0.00 | 78 | 1014.5 |
| 20260902003628 | 83 | 193 | 2.6 | 3.5 | 0.00 | 0.00 | 0.00 | 77 | 1014.9 |
| 20260902003123 | 84 | 191 | 2.6 | 2.6 | 0.00 | 0.00 | 0.00 | 77 | 1014.7 |
| 20260902002618 | 84 | 173 | 2.6 | 2.6 | 0.00 | 0.00 | 0.00 | 76 | 1014.9 |
| 20260902002113 | 84 | 169 | 0.9 | 1.7 | 0.00 | 0.00 | 0.00 | 75 | 1014.8 |
| 20260902001608 | 85 | 170 | 1.7 | 1.7 | 0.00 | 0.00 | 0.00 | 74 | 1015.0 |
| 20260902001103 | 85 | 176 | 1.7 | 1.7 | 0.00 | 0.00 | 0.00 | 74 | 1014.9 |
| 20260902000558 | 85 | 188 | 2.6 | 2.6 | 0.00 | 0.00 | 0.00 | 74 | 1014.9 |
| 20260902000053 | 86 | 193 | 1.7 | 2.6 | 0.00 | 0.00 | 0.00 | 73 | 1015.0 |
| 20260901235547 | 86 | 187 | 2.6 | 3.5 | 0.00 | 0.00 | 0.00 | 72 | 1015.0 |
| 20260901235043 | 87 | 200 | 1.7 | 2.6 | 0.00 | 0.00 | 0.00 | 71 | 1015.0 |
| 20260901234542 | 87 | 223 | 2.6 | 3.5 | 0.00 | 0.00 | 0.00 | 70 | 1015.1 |
| 20260901234037 | 87 | 210 | 1.7 | 5.2 | 0.00 | 0.00 | 0.00 | 71 | 1015.1 |
| 20260901233536 | 87 | 188 | 2.6 | 2.6 | 0.00 | 0.00 | 0.00 | 71 | 1015.2 |
| 20260901233034 | 88 | 196 | 2.6 | 3.5 | 0.00 | 0.00 | 0.00 | 71 | 1015.3 |
| 20260901232528 | 88 | 193 | 3.5 | 3.5 | 0.00 | 0.00 | 0.00 | 71 | 1015.2 |
| 20260901232024 | 89 | 189 | 1.7 | 2.6 | 0.00 | 0.00 | 0.00 | 70 | 1015.2 |